Torna al catalogo

GOES 5 AKM

AttivoMEO
NORAD 33521·ROCKET BODY·🇺🇸 United States

Lanciato May 22, 1981 da Cape Canaveral Space Force Station

Loading…

Prossimi Passaggi (prossime 24 ore)

TLE

AggiornatoSource: Space-Track

Epoca: Sep 14, 2026, 07:55 UTC

1 33521U 81049D   26257.33028868 -.00000220  00000-0  00000-0 0  9991
2 33521  16.1033 317.1062 1708346 145.8697 266.0391  0.82272744 59332

Traccia GOES 5 AKM in tempo reale con AllMySat

Download on the App Store